SAUDICOMSAT 2

Satellite information

Favourite Embed

Satellite Type and Status

PAYLOADIN ORBIT

Key statistics

Satellite SAUDICOMSAT 2 at a glance.

Uptime

7783

Days in orbit

Revolutions

≈ 14.5

Per day

Orbit

SSO

Sun Synchronous Orbit

Inclination

98.7

Latest

Satellite identification and parameters

Extended collection of information and parameters for SAUDICOMSAT 2.

Object identification

Identified? True

Debris? False

Object name: SAUDICOMSAT 2

International designator: 2004-025E

Object number (NORAD): 28370

Object ID (CCSDS): 28370

Country: SAUDI ARABIA (SAUD)

Current information (Y/N): Y

RCS size: SMALL

Orbital parameters

Period: 99.328 minutes

Inclination: 98.667 deg

SMA: 7104.628 km

Apoapsis: 765.231 km

Periapsis: 687.754 km

RAAN: 292.372 deg

Eccentricy: 0.00545256

Argument of periapsis: 270.4248 deg

Mean anomaly: 89.0698 deg

Mean motion: 14.49742133 rev/day

Mean motion (dot): 0.00000704 rev/day2

B* drag term: 0.00019228356 1/REarth

Two-line elements (TLE)

Creation date: Oct. 19, 2025, 2:20 a.m.

Reference frame: TEME

Reference center: EARTH

Epoch: Oct. 18, 2025, 10:19 p.m. UTC

TLE line 0: 0 SAUDICOMSAT 2

TLE line 1: 1 28370U 04025E 25291.93046882 .00000704 00000-0 19228-3 0 9996

TLE line 2: 2 28370 98.6670 292.3720 0054526 270.4248 89.0698 14.49742133125143

Live tracking on map

Real-time ground track for satellite SAUDICOMSAT 2.

In-orbit conjunctions

There are no conjunctions computed for SAUDICOMSAT 2, at the moment. Check back to stay up to date, as we update our databases every day.

Go to all conjunctions

Associated space launch

AprizeSat, is a constellation of small Low-Earth-Orbit satellites (64 satellites planned) to achieve a global communication system of data transmission and fixed and mobile asset tracking and monitoring (GMPCS).

SAUDICOMSAT 2 was lifted into orbit during the mission ‘Dnepr | Aprizesat-2’, on board a Dnepr space rocket.

The launch took place on June 29, 2004, 6:30 a.m. from 109/95.

For more information about the launch, click the button.

Launch to space Dnepr | Aprizesat-2
Dnepr | Aprizesat-2

Agency: N/A

Status: Launch Successful

Launch date: June 29, 2004, 6:30 a.m. UTC

Rocket: Dnepr

Launch pad: 109/95

Location: Baikonur Cosmodrome, Republic of Kazakhstan

...

Latest news about this satellite

There are no fresh news available about this satellite. Check back as we update our databases every day.


Newsletter sign-up

Weekly statistics, charts and insights to help you stay on top of the space industry.